Location: El Gallo
(32.4380°N, 116.9347°W)
Time: 20:49:55
(UTC+00:00)

Cosmos 1470 Rocket - Pass Details

Date: 01 October 2022
Orbit: 604 x 632 km, 82.5° (Epoch: 01 December)

Event Time Altitude Azimuth Distance (km) Brightness Sun altitude
Rises 12:18:56 0° 347° (NNW) 2,869 6.9 -18.3°
Reaches altitude 10° 12:21:12 10° 342° (NNW) 1,965 6.0 -17.8°
Maximum altitude 12:25:24 50° 267° (W) 783 3.6 -16.9°
Drops below altitude 10° 12:29:36 10° 192° (SSW) 1,968 5.9 -16.1°
Sets 12:31:52 0° 187° (S) 2,874 6.9 -15.6°
